This is the latest recevied weather packets stored in our database for station/object WE0DX-1. If no packets are shown the sender has not sent any weather packets the latest 10 day(s).
| Time | Temp. | Humidity | Pressure | Rain* | Wind** | Luminosity | Snow |
|---|---|---|---|---|---|---|---|
| 1777983388 | 9.44° C | 76% | 1008.9 hPa | 3.05 mm | - | 4 W/m² | - |
| 1777983085 | 10° C | 70% | 1008.8 hPa | 3.05 mm | - | 3 W/m² | - |
| 1777982781 | 10.56° C | 66% | 1009.2 hPa | 1.78 mm | - | 2 W/m² | - |
| 1777982477 | 11.11° C | 62% | 1009.6 hPa | 0 mm | - | 0 W/m² | - |
| 1777982172 | 11.11° C | 56% | 1009.6 hPa | 0 mm | - | 0 W/m² | - |
| 1777981870 | 11.67° C | 54% | 1008.9 hPa | 0 mm | - | 0 W/m² | - |
| 1777981566 | 11.67° C | 54% | 1009.3 hPa | 0 mm | - | 0 W/m² | - |
| 1777981263 | 11.67° C | 54% | 1008.9 hPa | 0 mm | - | 0 W/m² | - |
| 1777980959 | 11.67° C | 55% | 1008.9 hPa | 0 mm | - | 0 W/m² | - |
| 1777980655 | 11.67° C | 54% | 1009.3 hPa | 0 mm | - | 0 W/m² | - |
| 1777980352 | 11.67° C | 53% | 1009 hPa | 0 mm | - | 0 W/m² | - |
| 1777980050 | 11.67° C | 54% | 1009.2 hPa | 0 mm | - | 0 W/m² | - |
| 1777979744 | 11.67° C | 54% | 1008.8 hPa | 0 mm | - | 0 W/m² | - |
| 1777979441 | 11.67° C | 54% | 1008.9 hPa | 0 mm | - | 0 W/m² | - |
| 1777979137 | 11.67° C | 54% | 1008.9 hPa | 0 mm | - | 0 W/m² | - |
| 1777978834 | 11.67° C | 54% | 1008.6 hPa | 0 mm | - | 0 W/m² | - |
| 1777978531 | 11.67° C | 56% | 1008.7 hPa | 0 mm | - | 0 W/m² | - |
| 1777978227 | 11.67° C | 57% | 1008.1 hPa | 0 mm | - | 0 W/m² | - |
| 1777977924 | 11.67° C | 57% | 1008.3 hPa | 0 mm | - | 0 W/m² | - |
| 1777977621 | 11.67° C | 58% | 1008.5 hPa | 0 mm | - | 0 W/m² | - |
| 1777977318 | 11.67° C | 58% | 1008.7 hPa | 0 mm | - | 0 W/m² | - |
| 1777977016 | 11.11° C | 60% | 1008.6 hPa | 0 mm | - | 0 W/m² | - |
| 1777976712 | 11.11° C | 61% | 1008.7 hPa | 0 mm | - | 0 W/m² | - |
| 1777976410 | 11.11° C | 61% | 1008.7 hPa | 0 mm | - | 0 W/m² | - |
| 1777976108 | 11.11° C | 61% | 1009.3 hPa | 0 mm | - | 0 W/m² | - |
* Rain latest hour (hover to see other rain measurements)
** Current wind speed in m/s (hover to see current wind gust speed)